{"data":{"norad_id":62531,"epoch":"2026-05-24T17:13:28.681248Z","epoch_age_seconds":99178,"freshness":"FRESH","line1":"1 62531U 25004W   26144.71769307  .00015919  00000+0  58641-3 0  9996","line2":"2 62531  42.9986 150.7230 0001643 270.7949  89.2714 15.27598081 78087","mean_motion":15.27598081,"eccentricity":0.0001643,"inclination_deg":42.9986,"raan_deg":150.723,"arg_perigee_deg":270.7949,"mean_anomaly_deg":89.2714,"bstar":0.00058641,"rev_number":7808,"period_min":94.26563295087,"perigee_km":481.86767157477,"apogee_km":484.12223953537,"semimajor_km":6861.1319555551,"source":"CELESTRAK","updated_at":"2026-05-25T13:38:19.706036Z"}}